Temp
-9 -9 -9 -9 -9 -9 -9 -9 -9 -9 -9 -9 -9 -9 -9 -9 -9 -9 -9 -9 -9 -9 -9 -9 -9 -9 -9 -9 -9 -9 -9 -10 -10 -10 -10 -10 -10 -10 -10 -11 -11 -11 -10 -10 -10
-9 -9 -9 -9 -9 -9 -9 -9 -9 -9 -9 -9 -9 -9 -9 -9 -9 -9 -9 -9 -9 -9 -9 -9 -9 -9 -9 -9 -9 -9 -9 -10 -10 -10 -10 -10 -10 -10 -10 -11 -12 -11 -11 -10 -10
-10 -10 -10 -10 -10 -10 -9 -9 -9 -9 -9 -9 -9 -9 -9 -9 -9 -9 -9 -9 -9 -9 -9 -9 -9 -9 -9 -9 -9 -9 -10 -10 -10 -10 -10 -10 -10 -10 -10 -11 -12 -11 -11 -10 -11
-10 -10 -10 -10 -10 -10 -9 -9 -9 -9 -9 -9 -9 -9 -9 -9 -9 -9 -9 -9 -9 -9 -9 -9 -9 -10 -10 -10 -10 -10 -10 -10 -10 -10 -10 -10 -10 -10 -10 -11 -12 -11 -10 -11 -11
-10 -10 -10 -10 -10 -9 -9 -9 -9 -9 -9 -9 -9 -9 -9 -9 -10 -9 -9 -9 -10 -10 -10 -10 -10 -10 -10 -10 -10 -10 -10 -10 -10 -10 -10 -11 -11 -10 -10 -12 -11 -11 -11 -11 -11
-10 -10 -10 -10 -9 -9 -9 -9 -9 -9 -9 -9 -9 -9 -9 -10 -9 -10 -10 -10 -10 -10 -10 -10 -10 -10 -10 -10 -10 -10 -10 -10 -10 -10 -11 -11 -10 -10 -11 -11 -11 -11 -11 -11 -10
-10 -10 -10 -10 -10 -10 -10 -10 -10 -10 -10 -10 -10 -10 -10 -10 -10 -10 -10 -10 -10 -10 -10 -10 -10 -10 -10 -10 -10 -10 -10 -10 -10 -10 -10 -10 -9 -10 -11 -10 -10 -11 -10 -10 -10
-10 -10 -10 -10 -10 -10 -10 -10 -10 -10 -10 -10 -10 -10 -10 -10 -10 -10 -10 -10 -10 -10 -10 -10 -10 -10 -10 -10 -10 -10 -10 -10 -11 -10 -9 -10 -9 -10 -10 -10 -10 -11 -11 -11 -11
-11 -11 -11 -11 -11 -10 -10 -10 -10 -10 -10 -10 -10 -10 -10 -10 -11 -11 -11 -10 -10 -10 -10 -11 -10 -11 -11 -11 -10 -10 -10 -9 -9 -11 -9 -9 -9 -10 -10 -10 -10 -11 -11 -11 -11
-11 -11 -11 -11 -11 -11 -10 -10 -10 -10 -10 -10 -10 -10 -10 -11 -11 -11 -11 -11 -11 -11 -11 -11 -11 -11 -11 -11 -10 -10 -10 -10 -10 -10 -10 -9 -8 -9 -10 -10 -10 -11 -11 -11 -11
-11 -11 -11 -11 -11 -11 -11 -11 -11 -10 -10 -11 -11 -10 -11 -11 -11 -11 -11 -11 -11 -11 -11 -11 -11 -11 -11 -11 -11 -10 -10 -10 -10 -10 -9 -9 -8 -9 -10 -10 -10 -10 -10 -11 -11
-11 -11 -11 -11 -11 -11 -11 -11 -10 -10 -10 -11 -11 -11 -11 -11 -11 -11 -11 -11 -11 -11 -11 -11 -10 -11 -11 -11 -11 -11 -10 -10 -10 -10 -9 -9 -8 -9 -10 -10 -10 -10 -10 -10 -11
-12 -12 -12 -11 -11 -11 -11 -11 -11 -11 -10 -10 -11 -11 -11 -11 -11 -11 -12 -11 -11 -11 -11 -11 -11 -11 -11 -11 -11 -11 -11 -11 -10 -10 -9 -9 -9 -9 -10 -11 -11 -11 -11 -11 -11
-12 -12 -12 -12 -12 -11 -11 -11 -11 -11 -11 -10 -10 -10 -11 -11 -11 -11 -12 -12 -11 -12 -12 -11 -12 -12 -12 -12 -12 -11 -11 -11 -11 -10 -10 -9 -8 -9 -10 -11 -11 -11 -11 -11 -11
-13 -13 -13 -13 -12 -12 -12 -12 -12 -12 -11 -11 -11 -11 -12 -12 -12 -12 -13 -13 -13 -12 -12 -13 -13 -13 -13 -13 -13 -12 -13 -12 -12 -11 -10 -11 -11 -10 -11 -11 -13 -12 -12 -12 -12
-14 -14 -14 -14 -14 -13 -13 -13 -13 -13 -12 -13 -13 -14 -13 -13 -12 -12 -12 -13 -13 -13 -13 -13 -13 -13 -14 -14 -14 -14 -13 -13 -12 -12 -11 -11 -12 -11 -13 -14 -14 -13 -14 -15 -13
-14 -14 -14 -14 -14 -14 -14 -14 -13 -13 -13 -13 -14 -14 -14 -14 -14 -14 -14 -14 -14 -14 -14 -14 -14 -14 -15 -15 -15 -15 -14 -14 -14 -14 -13 -13 -12 -12 -13 -14 -14 -14 -15 -16 -16
-15 -15 -15 -15 -15 -14 -14 -14 -14 -13 -14 -15 -15 -15 -15 -15 -15 -16 -15 -15 -16 -16 -15 -15 -14 -16 -16 -16 -15 -15 -15 -15 -16 -14 -14 -14 -12 -13 -14 -14 -14 -15 -15 -15 -15
-15 -15 -15 -15 -15 -15 -15 -14 -14 -15 -15 -16 -16 -15 -15 -16 -16 -16 -16 -15 -16 -16 -16 -16 -16 -16 -16 -16 -16 -16 -16 -16 -16 -16 -16 -13 -13 -14 -14 -14 -14 -15 -15 -15 -16
-15 -15 -15 -16 -15 -15 -15 -14 -14 -16 -17 -17 -16 -16 -16 -16 -16 -16 -16 -15 -16 -16 -18 -18 -17 -16 -17 -17 -17 -17 -17 -17 -17 -18 -17 -15 -15 -15 -14 -14 -15 -16 -17 -18 -18
-16 -16 -16 -17 -16 -16 -15 -16 -16 -18 -18 -18 -18 -18 -17 -18 -18 -18 -17 -17 -17 -17 -18 -18 -19 -18 -18 -17 -17 -18 -18 -18 -18 -19 -19 -19 -16 -15 -16 -16 -16 -16 -17 -17 -18
-16 -16 -16 -17 -17 -17 -17 -18 -18 -18 -18 -18 -18 -18 -18 -19 -18 -19 -18 -19 -18 -18 -19 -19 -20 -19 -18 -18 -19 -19 -20 -19 -19 -19 -19 -20 -18 -17 -17 -17 -17 -17 -17 -17 -17
-17 -17 -17 -17 -17 -18 -18 -19 -18 -18 -18 -18 -19 -19 -19 -19 -19 -19 -19 -19 -20 -20 -20 -20 -20 -21 -20 -19 -20 -20 -20 -20 -21 -21 -20 -20 -20 -20 -19 -18 -18 -18 -18 -18 -18
-19 -19 -19 -19 -19 -19 -19 -19 -19 -19 -19 -19 -19 -19 -19 -19 -20 -19 -20 -20 -20 -20 -20 -21 -21 -21 -21 -21 -21 -22 -22 -22 -22 -21 -21 -21 -21 -21 -21 -21 -21 -20 -19 -19 -18
-19 -19 -20 -20 -19 -20 -20 -19 -19 -20 -20 -20 -20 -20 -20 -20 -21 -21 -21 -21 -21 -20 -21 -22 -22 -22 -22 -22 -23 -23 -23 -22 -22 -22 -23 -22 -22 -22 -23 -23 -23 -23 -22 -21 -21
-20 -20 -20 -20 -20 -21 -21 -20 -20 -21 -21 -21 -21 -22 -22 -22 -22 -22 -23 -23 -22 -22 -23 -23 -23 -23 -23 -23 -23 -24 -23 -23 -23 -23 -23 -23 -23 -23 -23 -24 -23 -23 -23 -23 -22
-21 -21 -21 -21 -21 -22 -22 -22 -22 -22 -22 -23 -23 -23 -23 -23 -23 -23 -23 -23 -23 -23 -23 -23 -24 -24 -24 -24 -24 -24 -22 -24 -24 -24 -25 -25 -25 -25 -25 -25 -25 -25 -25 -24 -24
Height
5883 5883 5884 5885 5885 5886 5885 5885 5886 5886 5887 5887 5887 5887 5887 5887 5887 5887 5886 5886 5885 5883 5882 5881 5880 5879 5878 5877 5876 5875 5875 5872 5871 5869 5868 5866 5865 5863 5862 5860 5857 5857 5857 5856 5855
5878 5879 5879 5880 5881 5882 5883 5883 5883 5883 5883 5883 5884 5884 5884 5883 5883 5882 5882 5880 5880 5879 5878 5877 5875 5875 5873 5872 5872 5871 5870 5867 5865 5863 5863 5861 5860 5856 5857 5856 5853 5853 5851 5851 5850
5873 5874 5875 5875 5876 5877 5878 5879 5879 5879 5879 5879 5879 5879 5879 5879 5878 5877 5876 5875 5874 5874 5872 5871 5870 5869 5868 5867 5867 5867 5865 5862 5861 5857 5857 5855 5854 5851 5850 5851 5847 5848 5846 5846 5845
5867 5868 5869 5870 5871 5871 5872 5872 5873 5873 5872 5873 5873 5874 5874 5875 5873 5870 5870 5869 5868 5867 5866 5864 5863 5862 5862 5862 5861 5860 5860 5857 5856 5853 5850 5847 5849 5845 5844 5845 5841 5839 5840 5839 5838
5860 5861 5862 5863 5864 5864 5865 5865 5866 5865 5865 5865 5865 5866 5868 5869 5864 5862 5863 5862 5861 5860 5858 5857 5857 5854 5855 5856 5854 5854 5854 5851 5850 5848 5843 5839 5841 5835 5842 5836 5834 5835 5835 5834 5832
5852 5853 5854 5854 5855 5856 5857 5857 5858 5858 5857 5857 5857 5857 5859 5863 5859 5855 5855 5854 5854 5853 5852 5850 5849 5847 5849 5849 5846 5846 5845 5846 5845 5841 5834 5831 5834 5831 5838 5824 5828 5828 5828 5826 5826
5843 5844 5845 5846 5847 5848 5849 5849 5849 5849 5849 5850 5849 5849 5853 5855 5853 5851 5848 5847 5847 5846 5845 5843 5842 5840 5841 5841 5839 5836 5835 5836 5840 5834 5826 5823 5827 5829 5826 5821 5822 5821 5821 5819 5819
5834 5836 5837 5838 5839 5840 5841 5842 5842 5842 5842 5842 5841 5841 5845 5847 5844 5844 5842 5840 5839 5839 5838 5836 5834 5832 5833 5833 5829 5828 5824 5824 5831 5827 5820 5812 5817 5824 5817 5815 5816 5816 5815 5814 5813
5824 5826 5827 5828 5830 5830 5831 5832 5833 5833 5833 5832 5832 5831 5835 5837 5836 5834 5834 5834 5832 5830 5829 5828 5825 5823 5826 5826 5818 5820 5813 5813 5814 5822 5813 5803 5801 5816 5812 5808 5809 5811 5810 5806 5803
5816 5817 5817 5819 5820 5820 5821 5822 5823 5823 5823 5822 5821 5824 5822 5825 5825 5827 5826 5825 5824 5822 5821 5820 5816 5813 5819 5817 5809 5807 5805 5803 5801 5812 5804 5796 5790 5795 5804 5799 5800 5801 5800 5798 5794
5805 5806 5807 5808 5809 5811 5812 5813 5814 5814 5813 5813 5811 5811 5811 5810 5811 5815 5817 5816 5814 5813 5811 5809 5806 5808 5808 5804 5803 5799 5796 5793 5797 5794 5787 5789 5785 5784 5788 5790 5791 5792 5790 5787 5784
5795 5795 5796 5798 5798 5799 5800 5800 5801 5801 5804 5803 5802 5799 5798 5798 5797 5802 5805 5805 5804 5801 5800 5800 5795 5796 5795 5794 5792 5789 5785 5783 5781 5781 5779 5775 5773 5776 5773 5778 5779 5779 5778 5776 5775
5783 5784 5785 5786 5787 5787 5788 5790 5790 5790 5788 5794 5792 5789 5788 5789 5788 5790 5790 5789 5790 5790 5790 5787 5784 5784 5782 5779 5781 5781 5773 5773 5768 5768 5767 5763 5761 5758 5764 5766 5766 5765 5766 5767 5765
5772 5773 5773 5774 5776 5776 5777 5777 5779 5778 5776 5775 5775 5778 5778 5780 5780 5776 5775 5776 5775 5775 5775 5772 5775 5772 5769 5768 5767 5762 5767 5763 5760 5755 5752 5752 5748 5750 5752 5752 5750 5748 5750 5751 5753
5758 5758 5758 5760 5762 5764 5765 5765 5766 5767 5763 5759 5757 5761 5766 5768 5765 5766 5765 5763 5763 5763 5761 5762 5759 5758 5757 5756 5753 5753 5752 5751 5749 5745 5741 5738 5738 5737 5741 5737 5736 5736 5735 5736 5738
5746 5748 5749 5748 5749 5752 5753 5753 5754 5756 5747 5750 5750 5751 5751 5752 5753 5753 5750 5749 5749 5748 5748 5750 5749 5744 5743 5743 5741 5740 5738 5735 5733 5733 5730 5730 5730 5727 5727 5724 5725 5723 5720 5722 5725
5734 5736 5738 5738 5738 5739 5739 5741 5744 5738 5738 5739 5742 5741 5739 5736 5735 5736 5737 5737 5737 5735 5733 5733 5733 5733 5732 5729 5729 5728 5726 5723 5722 5719 5721 5718 5716 5714 5717 5716 5710 5714 5711 5711 5712
5723 5723 5723 5725 5726 5726 5728 5729 5726 5727 5730 5730 5729 5727 5724 5720 5724 5724 5725 5726 5725 5721 5717 5716 5723 5721 5719 5717 5715 5714 5713 5712 5705 5705 5705 5705 5702 5701 5702 5699 5699 5699 5695 5693 5692
5709 5711 5712 5710 5712 5713 5714 5714 5715 5715 5716 5716 5714 5712 5714 5712 5708 5707 5712 5716 5715 5711 5705 5704 5706 5703 5705 5704 5703 5699 5700 5700 5690 5690 5682 5693 5695 5689 5688 5686 5684 5680 5679 5675 5674
5696 5697 5699 5696 5695 5696 5698 5702 5702 5702 5698 5697 5697 5700 5702 5697 5695 5693 5695 5697 5695 5694 5688 5687 5688 5693 5691 5692 5691 5687 5686 5681 5679 5667 5666 5677 5676 5674 5674 5670 5665 5663 5661 5661 5659
5680 5681 5684 5680 5680 5680 5683 5687 5686 5686 5681 5682 5685 5683 5686 5683 5679 5676 5679 5682 5680 5676 5674 5671 5670 5679 5674 5680 5681 5671 5666 5667 5663 5658 5652 5649 5658 5666 5662 5654 5650 5644 5642 5643 5642
5664 5665 5669 5667 5667 5668 5671 5673 5671 5671 5668 5667 5669 5667 5669 5668 5665 5663 5665 5664 5663 5662 5660 5658 5648 5647 5656 5664 5655 5652 5647 5647 5640 5640 5635 5628 5626 5654 5645 5639 5634 5627 5626 5622 5621
5647 5648 5650 5650 5652 5655 5656 5658 5658 5658 5654 5652 5653 5652 5651 5653 5648 5651 5651 5652 5648 5647 5643 5642 5634 5629 5631 5640 5637 5631 5632 5629 5625 5620 5614 5610 5610 5620 5621 5616 5608 5607 5603 5598 5593
5632 5631 5634 5636 5639 5640 5640 5643 5643 5643 5641 5638 5639 5637 5634 5635 5634 5635 5633 5632 5632 5630 5628 5624 5620 5622 5618 5620 5618 5614 5614 5613 5609 5602 5598 5596 5595 5598 5600 5597 5586 5585 5582 5577 5572
5618 5617 5621 5620 5624 5624 5622 5628 5628 5626 5626 5623 5623 5621 5618 5618 5617 5618 5617 5615 5617 5616 5612 5605 5601 5604 5601 5601 5598 5595 5594 5599 5592 5586 5576 5581 5573 5582 5574 5575 5572 5565 5562 5556 5552
5602 5604 5605 5606 5607 5607 5606 5614 5610 5608 5610 5608 5606 5602 5601 5600 5597 5601 5600 5599 5599 5599 5595 5592 5583 5581 5578 5581 5575 5567 5574 5575 5571 5565 5556 5554 5550 5550 5548 5547 5545 5544 5542 5539 5532
5584 5586 5586 5590 5590 5591 5592 5592 5592 5589 5590 5590 5589 5586 5585 5584 5581 5580 5580 5581 5578 5578 5575 5571 5566 5560 5550 5557 5545 5539 5561 5550 5546 5545 5537 5529 5528 5523 5520 5522 5524 5521 5517 5515 5513
Wind_Speed
22 21 21 20 18 16 15 15 15 14 13 13 12 12 12 14 14 14 15 16 17 18 18 18 20 20 20 21 21 21 21 23 24 24 23 23 23 24 23 23 23 23 23 22 21
23 21 20 19 18 17 17 16 17 18 18 19 19 18 18 19 20 20 21 22 21 21 22 23 23 23 23 24 23 23 21 22 24 24 24 24 24 27 25 24 26 25 27 25 24
27 25 24 23 22 22 22 22 22 22 23 24 24 23 23 24 25 25 26 26 26 26 26 25 25 25 25 25 24 22 23 25 25 27 25 24 24 26 27 22 27 26 28 26 25
32 31 30 30 29 29 28 28 28 28 29 29 29 29 28 28 30 30 31 31 30 30 28 27 27 28 25 26 26 26 24 27 25 28 28 29 25 27 28 22 26 28 25 26 23
38 37 37 37 36 35 35 35 35 35 35 35 36 36 34 31 32 36 34 31 30 29 30 30 29 30 28 27 29 29 28 28 29 29 32 35 29 33 22 27 30 26 25 25 26
41 41 40 39 39 38 38 38 38 39 39 38 38 36 33 25 31 34 32 32 32 32 31 33 32 33 32 32 35 34 32 31 29 32 37 40 36 35 23 36 30 29 27 27 27
41 40 39 38 37 37 36 35 34 35 35 35 35 35 31 29 32 35 37 37 37 36 36 36 34 36 36 36 38 38 39 37 30 35 43 43 36 33 33 38 33 31 30 30 28
44 43 43 41 41 41 40 39 38 37 38 39 41 41 37 33 36 36 37 36 36 35 36 36 39 41 40 39 41 41 44 42 33 35 40 47 41 31 37 38 35 31 30 30 30
45 44 45 45 44 45 44 44 43 42 42 43 43 43 39 36 34 36 38 39 40 41 41 41 44 45 42 42 47 44 47 44 40 31 39 48 48 33 36 39 35 32 29 32 31
47 46 46 46 46 45 46 45 44 44 45 45 46 45 46 42 41 39 40 41 42 43 44 45 49 50 45 46 50 49 48 49 49 39 41 46 49 45 35 40 36 33 31 33 36
50 49 50 50 49 48 49 49 49 48 48 48 49 49 48 49 47 41 40 42 45 46 47 49 52 51 48 48 48 50 52 52 49 49 51 47 48 48 42 36 34 33 35 37 41
52 52 52 51 52 51 51 51 51 51 49 48 48 49 50 49 50 46 44 43 44 47 48 49 52 50 50 50 51 53 55 56 56 52 52 54 51 49 51 42 36 32 34 36 38
53 56 56 57 55 54 52 53 52 53 55 51 52 55 56 55 54 52 52 51 48 48 48 50 53 51 52 53 52 53 58 55 56 55 55 57 57 55 49 44 38 36 34 35 40
58 57 57 61 60 59 58 58 56 57 61 62 62 60 58 56 55 52 50 50 50 45 45 51 47 50 52 54 51 58 55 57 56 56 58 56 59 57 53 52 50 49 42 37 36
51 54 52 51 56 61 62 62 61 62 61 60 59 54 47 47 47 45 43 44 47 49 48 46 48 51 55 55 56 59 56 60 61 60 63 61 61 64 56 57 38 35 43 43 41
46 45 48 47 47 47 49 50 48 47 57 52 52 49 49 47 47 47 48 47 44 44 47 50 53 54 53 53 54 56 58 60 63 60 62 62 61 64 57 50 49 58 50 38 39
49 51 52 52 51 51 52 51 52 54 53 52 48 49 50 54 52 48 46 47 46 49 47 47 50 51 48 51 50 50 54 59 60 59 61 62 64 67 60 59 59 57 52 41 39
51 51 51 55 55 54 54 56 57 58 51 48 49 50 52 57 54 51 48 50 40 36 49 52 50 46 47 46 50 53 55 52 53 57 60 60 63 66 64 66 64 60 63 64 65
57 57 54 57 61 61 59 59 58 55 53 50 52 56 55 55 59 62 61 56 53 56 59 54 50 52 50 52 55 59 58 54 58 60 66 66 63 65 66 68 68 68 68 67 60
59 61 60 61 62 61 60 59 57 50 51 53 56 56 57 59 62 63 62 64 62 62 60 63 65 61 63 58 57 56 53 56 57 64 68 67 70 70 68 71 68 66 60 58 49
63 63 60 58 59 63 62 59 55 52 53 54 55 58 59 56 57 62 66 65 63 62 60 58 60 64 67 68 62 67 69 69 71 60 49 51 65 63 65 69 72 76 76 72 70
66 66 64 62 62 63 61 51 55 57 55 52 52 52 52 52 54 56 55 55 56 58 58 57 63 65 63 59 63 61 61 61 65 69 72 77 81 67 71 73 74 76 75 77 77
70 71 65 64 63 59 58 57 56 56 56 57 55 54 55 56 59 57 56 55 54 56 59 60 63 62 65 63 63 62 62 63 66 66 69 72 69 61 63 71 75 77 79 81 81
73 66 64 66 63 57 55 56 57 57 57 58 58 58 59 59 58 60 59 59 59 59 58 59 62 62 63 64 66 60 60 63 48 45 48 50 53 57 61 69 80 79 79 81 84
66 64 65 65 62 56 57 57 56 56 56 57 57 58 57 59 57 56 57 59 60 62 61 61 63 62 64 65 66 69 69 67 72 72 78 78 82 77 78 77 78 74 77 82 85
63 60 60 57 58 56 56 57 55 54 55 55 56 57 57 58 59 58 58 57 57 58 59 60 65 65 67 66 71 76 74 74 77 82 82 81 83 81 79 78 79 79 77 79 85
58 59 57 56 56 56 55 53 53 54 55 55 56 55 56 58 59 60 60 59 61 62 65 66 68 71 76 73 78 83 75 77 79 78 78 80 77 78 79 77 76 77 78 79 82
Wind_Direction
264 267 268 267 268 266 262 251 247 248 252 259 267 273 281 288 293 295 297 293 293 293 291 292 293 294 293 292 293 296 299 298 298 298 296 294 293 289 289 286 283 278 280 278 277
259 258 259 260 261 262 262 259 258 258 260 265 272 276 280 286 289 291 291 291 290 290 290 289 289 290 290 288 288 293 297 293 295 293 295 298 296 291 289 285 285 282 282 281 277
256 258 260 261 261 262 264 265 263 264 267 270 273 275 280 284 286 289 287 287 288 289 287 285 284 284 285 288 291 296 299 292 295 296 298 296 292 291 286 287 281 284 284 289 283
258 260 261 263 265 266 266 267 268 270 271 272 274 278 281 286 287 284 286 287 287 286 282 279 280 282 283 287 290 295 297 293 297 295 297 291 293 286 285 288 278 285 289 290 287
263 264 265 267 267 268 269 270 272 272 273 274 275 277 279 282 281 282 282 282 281 280 279 279 281 278 281 287 289 295 292 295 295 296 290 288 288 284 309 283 276 281 283 280 284
263 265 266 267 268 269 268 268 269 270 272 272 273 274 275 277 273 280 282 281 281 280 279 280 279 279 284 290 292 293 291 293 296 291 283 281 283 291 299 280 285 283 280 281 285
263 264 265 266 267 267 267 267 268 269 269 271 271 272 272 274 275 275 279 280 280 281 281 280 277 276 281 286 291 290 290 290 297 285 284 284 285 290 280 280 282 281 283 285 288
260 263 264 265 266 267 268 269 268 268 269 272 274 275 277 275 277 277 276 278 278 278 278 277 276 277 282 286 288 287 288 288 281 284 286 284 284 285 283 284 284 287 291 290 286
260 261 262 262 264 266 267 267 268 270 271 272 274 275 275 273 271 272 273 275 276 277 275 275 277 279 281 285 284 286 286 289 289 285 280 281 283 279 279 281 282 283 280 279 278
262 263 263 264 264 264 265 266 268 269 270 271 272 274 274 275 273 271 272 274 274 274 275 277 277 278 284 285 282 282 287 290 290 292 280 279 285 285 284 280 284 281 274 271 270
263 263 264 265 266 267 268 268 267 266 266 269 271 272 275 275 272 270 271 274 274 275 275 275 277 281 281 278 280 281 284 287 292 290 283 280 283 289 285 277 278 281 277 273 273
264 266 266 267 267 267 266 267 268 269 267 271 272 273 271 272 275 278 274 276 273 271 272 275 276 278 277 277 277 279 282 283 286 284 282 285 282 283 283 286 282 278 279 274 272
265 265 266 267 267 265 266 266 267 269 271 268 269 271 275 276 277 279 279 276 274 273 270 269 271 273 273 271 273 277 276 280 280 283 283 285 284 282 284 284 282 274 273 272 278
263 266 266 266 266 266 268 267 268 269 271 272 270 270 273 273 274 277 277 275 273 273 268 265 266 267 269 273 275 271 275 275 277 278 279 279 280 284 285 286 282 283 278 269 267
259 260 262 266 267 266 267 268 269 271 272 271 273 276 276 276 279 281 277 271 271 270 267 267 264 264 266 269 269 273 273 274 275 274 277 276 280 282 286 285 290 280 285 282 281
258 258 263 265 264 265 268 267 266 267 267 269 276 283 285 283 280 279 278 275 272 270 272 272 272 273 275 273 270 271 272 272 271 269 270 274 276 277 284 288 282 284 285 278 272
261 261 263 266 265 264 264 266 268 266 269 273 283 287 284 284 284 280 276 274 276 277 275 275 275 276 274 273 274 274 275 272 269 268 269 270 271 272 275 277 278 282 279 266 249
269 269 271 272 270 265 267 268 267 268 276 280 284 282 280 279 278 280 279 277 275 269 278 281 275 267 269 265 265 264 266 271 273 270 265 264 266 271 275 276 277 275 273 273 273
268 269 269 271 264 267 269 267 269 277 283 283 279 279 278 278 280 281 276 268 269 275 280 273 266 267 261 263 272 272 272 270 271 265 266 263 262 264 267 270 273 275 276 278 280
268 269 269 268 268 269 271 271 275 283 282 281 280 281 281 281 281 281 281 281 286 286 287 286 280 273 277 280 276 282 279 277 280 285 282 269 268 269 269 270 274 277 278 277 270
267 268 267 271 272 275 277 278 280 281 281 281 283 284 285 283 282 283 287 287 286 286 285 286 283 285 284 284 283 277 276 278 280 278 271 268 272 275 276 275 274 274 277 274 272
262 264 266 268 271 275 280 283 282 284 281 279 279 281 281 278 278 279 283 283 285 286 284 283 282 282 283 283 281 280 277 274 271 277 277 276 276 275 275 276 276 275 276 278 278
266 267 273 272 274 279 279 279 280 281 279 279 281 281 280 281 283 284 285 285 284 283 284 285 282 285 287 285 282 277 275 274 277 275 274 275 279 279 276 276 273 275 276 277 278
274 277 276 275 273 275 276 277 277 277 278 278 279 280 281 281 281 284 284 284 285 285 283 281 279 280 279 278 279 273 272 277 273 264 270 264 262 261 266 268 273 273 270 270 272
270 268 269 271 274 274 275 277 276 275 274 275 277 277 278 279 279 280 279 281 282 283 283 283 282 282 280 278 274 273 271 266 261 264 269 266 266 266 268 265 267 267 265 267 268
266 269 269 270 272 274 275 277 276 274 274 275 277 278 280 280 280 280 279 279 280 281 281 282 285 285 284 282 278 274 273 271 266 268 271 272 272 272 272 269 268 268 265 265 267
267 269 269 270 272 273 274 273 274 274 274 276 278 279 280 280 279 280 281 282 283 284 285 285 286 285 283 281 277 275 282 274 273 272 273 273 273 273 271 270 269 269 268 268 266